Defiance, OH

4:45 AM EST on November 18, 2019 (GMT -0500)
Defiance Memorial

Weather History for KDFI - October, 2019

Change the Weather History Date:

Monday, October 21, 2019

  Actual Average Record
Temperature  
Mean Temperature 60 °F -  
Max Temperature 66 °F 58 °F 86 °F (1953)
Min Temperature 53 °F 36 °F 17 °F (1952)
Degree Days  
Heating Degree Days 6    
Growing Degree Days 10 (Base 50)    
Moisture  
Dew Point 53 °F    
Average Humidity 78    
Maximum Humidity 84    
Minimum Humidity 67    
Precipitation  
Precipitation 0.12 in - - ()
Sea Level Pressure  
Sea Level Pressure 29.79 in    
Wind  
Wind Speed 7 mph ()    
Max Wind Speed 16 mph    
Max Gust Speed 30 mph    
Visibility 10.0 miles    
Events Rain    
Averages and records for this station are not official NWS values.
T = Trace of Precipitation, MM = Missing Value Source: Averaged Metar Reports

Daily Weather History Graph

Daily Weather History Graph

Search for Another Location

Airport or City:

Astronomy

Oct. 21, 2019 Rise Set
Actual Time 7:56 AM EDT 6:48 PM EDT
Civil Twilight 7:27 AM EDT 7:16 PM EDT
Nautical Twilight 6:55 AM EDT 7:48 PM EDT
Astronomical Twilight 6:23 AM EDT 8:20 PM EDT
Moon No Moon Rise 3:15 PM EDT (10/21)
Length of Visible Light 11h 48m
Length of Day
10h 52m
Waning Gibbous, 48% of the Moon is Illuminated
Oct 21
Waning Gibbous
Oct 27
New
Nov 4
First Quarter
Nov 12
Full
Nov 19
Last Quarter

Hourly Weather History & Observations

Time (EDT) Temp. Dew Point Humidity Pressure Visibility Wind Dir Wind Speed Gust Speed Precip Events Conditions
12:53 AM 54.0 °F 46.9 °F 77% 29.94 in 10.0 mi Calm Calm - N/A   Overcast
1:53 AM 53.1 °F 48.0 °F 83% 29.93 in 10.0 mi East 4.6 mph - N/A   Overcast
2:53 AM 55.9 °F 46.9 °F 72% 29.93 in 10.0 mi ESE 8.1 mph - N/A   Overcast
3:53 AM 55.9 °F 45.0 °F 67% 29.90 in 10.0 mi ESE 8.1 mph - N/A   Mostly Cloudy
4:53 AM 54.0 °F 46.0 °F 75% 29.91 in 10.0 mi East 6.9 mph - N/A   Overcast
5:53 AM 54.0 °F 46.0 °F 75% 29.90 in 10.0 mi East 5.8 mph - N/A   Overcast
6:53 AM 54.0 °F 46.0 °F 75% 29.89 in 10.0 mi ESE 6.9 mph - N/A   Overcast
7:53 AM 54.0 °F 46.9 °F 77% 29.86 in 10.0 mi ESE 6.9 mph - N/A   Overcast
8:53 AM 55.9 °F 48.9 °F 77% 29.86 in 10.0 mi ESE 6.9 mph - N/A   Overcast
9:53 AM 57.9 °F 53.1 °F 84% 29.85 in 10.0 mi SE 9.2 mph - N/A   Mostly Cloudy
10:17 AM 57.9 °F 53.1 °F 84% 29.83 in 10.0 mi SE 13.8 mph 24.2 mph N/A   Overcast
10:28 AM 57.9 °F 53.1 °F 84% 29.81 in 10.0 mi SE 12.7 mph 23.0 mph N/A   Overcast
10:53 AM 59.0 °F 54.0 °F 83% 29.82 in 10.0 mi SE 10.4 mph 20.7 mph N/A   Overcast
11:17 AM 60.1 °F 54.0 °F 80% 29.82 in 10.0 mi SE 11.5 mph 21.9 mph N/A   Mostly Cloudy
11:33 AM 60.1 °F 55.0 °F 83% 29.81 in 10.0 mi SE 8.1 mph - N/A   Scattered Clouds
11:53 AM 61.0 °F 55.0 °F 81% 29.80 in 10.0 mi SE 9.2 mph 17.3 mph N/A   Scattered Clouds
12:53 PM 62.1 °F 55.9 °F 80% 29.78 in 9.0 mi SE 9.2 mph - 0.02 in Rain Light Rain
1:53 PM 61.0 °F 55.9 °F 83% 29.73 in 10.0 mi SSE 11.5 mph 21.9 mph 0.06 in Rain Light Rain
2:53 PM 61.0 °F 55.0 °F 81% 29.66 in 10.0 mi SE 15.0 mph 27.6 mph 0.01 in   Overcast
3:53 PM 63.0 °F 55.9 °F 78% 29.67 in 10.0 mi SSE 13.8 mph 24.2 mph 0.00 in   Overcast
4:53 PM 64.9 °F 57.0 °F 75% 29.65 in 10.0 mi South 10.4 mph 24.2 mph 0.00 in   Overcast
5:53 PM 64.9 °F 59.0 °F 81% 29.65 in 10.0 mi South 9.2 mph - 0.01 in Rain Light Rain
6:53 PM 64.9 °F 60.1 °F 84% 29.62 in 10.0 mi SSE 10.4 mph - 0.02 in Rain Light Rain
7:53 PM 66.9 °F 57.0 °F 70% 29.63 in 10.0 mi South 13.8 mph 24.2 mph 0.00 in Rain Light Rain
8:53 PM 66.9 °F 55.9 °F 68% 29.63 in 10.0 mi South 16.1 mph 29.9 mph 0.00 in   Overcast
9:53 PM 64.9 °F 55.9 °F 73% 29.64 in 10.0 mi SSW 13.8 mph 20.7 mph N/A   Mostly Cloudy